Find Starlink 34808

NORAD ID: 65745 Int'l Des: 2025-216 Owner: SPXS Country: US Constellation: starlink operational
LEOCIRCULAR

Aktuelle Ansicht

3D-Globus wird geladen...

Über Starlink 34808

Beschreibung wird geladen...

Nächste Überflüge

Passes for default location (London). Set your location on the main map for personalized predictions.

Höhenverlauf

Loading altitude history...

Zweizeiliger Elementsatz

1 65745U 25216M 26149.44681941 .00029094 00000-0 99035-3 0 9995
2 65745 53.1598 317.3707 0000925 108.6034 251.5067 15.30208030 38881
Epoch: 29. Mai 2026 • Age: 19 hours

Aktueller Status

Höhe 491.4 km
Geschwindigkeit 7.62 km/s
Subsatellitenpunkt -46.18°S, 63.71°W
Startdatum 25. Sept. 2025
Alter 0.6 years
Typ internet

Technische Details

Klassifizierung Payload
Masse 575.00 kg
Trockenmasse 530.00 kg
Gesamtmasse 575.00 kg
Länge 0.30 m
Durchmesser 4.10 m
Spannweite 29.00 m
Form Box + pan
Hersteller SPXS
Bus-Typ Starlink V2MO
Phasenstatus In Orbit
Besitzer/Staat SPXS/US

Most Searched